sat.trackr.live / text

‹ back to catalog

STARLINK-32756

NORAD 62752 · 2025-014T

PAYLOAD ACTIVE UNKNOWN

§ Identity

Operator
Country
US
Launch date
2025-01-21
Launch site
AFETR
Launch vehicle
Mass (kg)
RCS (m²)

Purposes: comms

External: N2YO · Heavens-Above · Gunter

§ Orbital elements

Epoch: 2026-09-21T00:06:59.717376Z

Period
94.27 min
Inclination
43.0053°
Eccentricity
0.0001469
Mean motion
15.27581553 rev/d
Perigee alt
482.0 km
Apogee alt
484.1 km
Semi-major
6,861.2 km
B*
2.2122e-4
RAAN
131.7492°
Arg perigee
274.1425°
Mean anomaly
85.9259°
Rev number
9,312

§ Raw data

STARLINK-327561 62752U 25014T   26264.00485784  .00005830  00000+0  22122-3 0  99972 62752  43.0053 131.7492 0001469 274.1425  85.9259 15.27581553 93126

JSON: /api/v1/satellites/62752 · /tle

For live sub-satellite position, see the globe view (requires WebGL).

§ Visibility from observer

Set your observer location to see the next 7 days of passes ≥ 10°. The values pass through the URL so the page stays shareable.

No JS? Fill the form by hand. The geolocation button needs JavaScript.